TKSAT-1 (TUPAC KATARI) (39481 NORAD) Tracking and Keplerian Element Data

This shows tracking and keplerian element data for the satellite.

Feedback or suggestion? Click here.




ElementValue
Catalog39481
NameTKSAT-1 (TUPAC KATARI)
Epoch Orbit4059
Epoch Day34.5948855
Epoch Year2025
RAAN113.2419
Inclination0.0261
Eccentricity0.0003108
Argument of Perigee203.2408
Mean Anonmoly304.4702
Mean Motion1.00270407
Decay Rate-1.9E-06
L11 39481U 13075A 25034.59488550 -.00000190 00000+0 00000+0 0 9998
L22 39481 0.0261 113.2419 0003108 203.2408 304.4702 1.00270407 40597



Live tracking and technical data element details for TKSAT-1 (TUPAC KATARI) (NORAD 39481). TKSAT-1 (TUPAC KATARI) can be tracked NOW for your location showing map with azimuth and elevation plus other details from your city location.







IsCatalogInMostPopularTable: catalog: 39481, numindb: 485
Update: records affected: 1



GetName: 39481 TKSAT-1 (TUPAC KATARI)

Hit Count: updated at: Thu, 15 May 2025 09:49:01 GMT